{"data":{"norad_id":46043,"intl_designator":"2020-055S","name":"STARLINK-1582","alt_names":[],"object_type":"PAYLOAD","status":"ACTIVE","operator":null,"country":"US","launch_date":"2020-08-07","launch_site_code":"AFETR","launch_vehicle":null,"mission":null,"orbit_class":"UNKNOWN","rcs_meters":null,"size_class":null,"mass_kg":null,"dimensions":null,"purposes":["comms"],"wikipedia_slug":null,"has_3d_model":false,"image_url":null,"decayed_at":null,"tle_current":{"epoch":"2026-05-25T03:24:26.430048Z","epoch_age_seconds":60100,"freshness":"FRESH","line1":"1 46043U 20055S   26145.14197257 -.00000843  00000+0 -15385-4 0  9995","line2":"2 46043  53.1586 131.1407 0001469  83.9066 276.2102 15.31696893320596","mean_motion":15.31696893,"eccentricity":0.0001469,"inclination_deg":53.1586,"raan_deg":131.1407,"arg_perigee_deg":83.9066,"mean_anomaly_deg":276.2102,"bstar":-1.5385e-5,"rev_number":32059,"period_min":94.013378663947,"perigee_km":469.74315565547,"apogee_km":471.75535843779,"semimajor_km":6848.8862570466,"source":"CELESTRAK","updated_at":"2026-05-25T13:38:16.460229Z"}}}